[[{"header":{"parameterUnit":"m.s-1","parameterCategory":1,"la1":30.2991,"la2":30.254,"lo1":-89.0895,"lo2":-89.0444,"dy":0.0017,"dx":0.0017,"nx":28,"ny":28,"refTime":"2026-02-16T03:00:00:Z","depth":0,"parameterNumber":2,"parameterNumberName":"U-component_of_WINDS"},"data":[0,0,0,0,0,0,0,0,0,0,0,0,0,0,0,0,0,0,0,0,0,0,0,0,0,0,0,0,0,0,0,0,0,0,0,0,0,0,0,0,0,0,0,0,0,0,0,0,0,0,0,0,0,0,0,0,0,0,-0.1985,-0.1986,0,-0.2041,-0.2041,-0.2042,-0.2039,-0.2039,-0.2038,-0.2037,-0.2097,-0.21,-0.2102,0,0,0,0,0,0,0,0,0,0,0,0,0,-0.1881,-0.1883,-0.1985,-0.1986,-0.1987,-0.2041,-0.2041,-0.2042,-0.204,-0.2039,-0.2038,-0.2037,-0.2097,-0.2099,-0.2102,0,0,0,0,0,0,0,0,0,0,0,0,0,-0.193,-0.1883,-0.1985,-0.1992,-0.1993,-0.204,-0.2041,-0.2042,-0.204,-0.2039,-0.2037,-0.2036,-0.2096,-0.2099,-0.2103,-0.2148,0,0,-0.2113,-0.2115,0,0,0,0,0,0,0,0,-0.1927,-0.1934,-0.199,-0.1991,-0.1993,-0.2032,-0.2027,-0.2078,-0.204,-0.2022,-0.2037,-0.2036,-0.2077,-0.2082,-0.2095,-0.2151,-0.2154,-0.2114,-0.2116,-0.2117,-0.2118,0,0,0,0,0,0,0,-0.1924,-0.1932,-0.2007,-0.1991,-0.1993,-0.1993,-0.1999,-0.2036,-0.2056,-0.2024,-0.2024,-0.203,-0.2077,-0.2092,-0.2096,-0.2155,-0.2114,-0.2117,-0.2119,-0.212,-0.2252,-0.2253,0,0,0,0,0,0,-0.1919,-0.1929,-0.2006,-0.2009,-0.1956,-0.1996,-0.2002,-0.2021,-0.2055,-0.2059,-0.2031,-0.203,-0.2086,-0.2092,-0.2098,-0.2155,-0.2117,-0.2121,-0.2123,-0.2251,-0.2252,-0.2254,0,0,0,0,0,0,-0.1916,-0.1926,-0.2003,-0.1969,-0.1979,-0.1999,-0.202,-0.2022,-0.2037,-0.2061,-0.2064,-0.2042,-0.2085,-0.2094,-0.2136,-0.2157,-0.2122,-0.2125,-0.2249,-0.2251,-0.2253,-0.2268,0,0,0,0,0,0,-0.1913,-0.1925,-0.1941,-0.1969,-0.1981,-0.2039,-0.2021,-0.2024,-0.2042,-0.2041,-0.2072,-0.2076,-0.2085,-0.2131,-0.2139,-0.2162,-0.2128,-0.2247,-0.225,-0.2253,-0.2266,-0.2271,-0.2275,0,0,0,0,0,-0.191,-0.1944,-0.1942,-0.1952,-0.2002,-0.204,-0.2047,-0.2056,-0.2044,-0.2062,-0.2077,-0.2075,-0.2153,-0.2135,-0.2145,-0.2168,-0.2246,-0.2249,-0.2252,-0.2264,-0.227,-0.2275,0,0,0,0,0,0,-0.1919,-0.1948,-0.1946,-0.199,-0.2013,-0.2039,-0.2062,-0.2061,-0.2088,-0.2086,-0.2097,-0.2104,-0.2147,-0.2162,-0.2141,-0.2215,-0.2198,-0.2204,-0.2204,-0.221,-0.2214,-0.221,-0.2131,0,0,0,0,0,-0.1926,-0.1954,-0.1978,-0.2015,-0.2026,-0.2042,-0.2059,-0.2064,-0.2088,-0.2098,-0.2116,-0.2141,-0.2171,-0.2191,-0.222,-0.2268,-0.2275,-0.2289,-0.2293,-0.2296,-0.2301,-0.2329,-0.2336,-0.2264,-0.2264,-0.2264,0,0,-0.1942,-0.1961,-0.1978,-0.2017,-0.2035,-0.2064,-0.205,-0.2082,-0.2104,-0.2103,-0.2144,-0.2159,-0.2187,-0.2232,-0.2253,-0.2246,-0.2323,-0.23,-0.2303,-0.2306,-0.2333,-0.234,-0.2346,-0.2266,-0.2266,-0.2266,0,0,-0.1985,-0.2002,-0.2035,-0.2053,-0.2079,-0.209,-0.2098,-0.2125,-0.2134,-0.2175,-0.2175,-0.2202,-0.2254,-0.2274,-0.2291,-0.2342,-0.2342,-0.2351,-0.2375,-0.2401,-0.2407,-0.2412,-0.2432,-0.2439,-0.2356,-0.2356,-0.2356,0,-0.2002,-0.2045,-0.2052,-0.2084,-0.2102,-0.21,-0.2135,-0.2152,-0.2188,-0.2201,-0.2191,-0.2256,-0.2275,-0.2326,-0.2338,-0.2351,-0.2362,-0.2349,-0.2405,-0.2411,-0.2416,-0.2435,-0.2442,-0.2357,-0.2357,-0.2357,-0.2357,0,-0.2064,-0.2095,-0.2118,-0.2152,-0.2172,-0.2205,-0.2218,-0.2238,-0.2241,-0.2253,-0.2295,-0.2317,-0.2351,-0.2363,-0.2367,-0.2415,-0.241,-0.2403,-0.2387,-0.2423,-0.2442,-0.2449,-0.2359,-0.2358,-0.2358,-0.2358,0,0,-0.2117,-0.2153,-0.2162,-0.2177,-0.2207,-0.2231,-0.2264,-0.2296,-0.2314,-0.2338,-0.2367,-0.2411,-0.2404,-0.2424,-0.2429,-0.2453,-0.2493,-0.2443,-0.2444,-0.2453,-0.255,-0.2556,-0.2564,-0.2492,-0.2494,-0.2495,-0.2548,0,-0.2165,-0.2223,-0.223,-0.2282,-0.2311,-0.231,-0.2339,-0.2361,-0.2373,-0.24,-0.2413,-0.2445,-0.2433,-0.2445,-0.2467,-0.2483,-0.2513,-0.248,-0.2522,-0.2523,-0.2516,-0.2574,-0.2581,-0.263,-0.2555,-0.2556,-0.2557,0,-0.2229,-0.2254,-0.2309,-0.2335,-0.2347,-0.2373,-0.2404,-0.2429,-0.2454,-0.2461,-0.2482,-0.2485,-0.2521,-0.2502,-0.2552,-0.2529,-0.2546,-0.2557,-0.2559,-0.2565,-0.2544,-0.2583,-0.2645,-0.2654,-0.2568,-0.2567,-0.2566,0,-0.2264,-0.2312,-0.2351,-0.2364,-0.2395,-0.2413,-0.2427,-0.245,-0.247,-0.2496,-0.2509,-0.254,-0.2557,-0.2581,-0.2593,-0.2578,-0.2643,-0.2625,-0.2652,-0.2651,-0.2667,-0.2666,-0.2735,-0.2675,-0.2675,-0.2675,-0.2675,0,-0.2318,-0.2352,-0.2367,-0.2392,-0.243,-0.2438,-0.2476,-0.2489,-0.251,-0.2538,-0.2539,-0.2565,-0.2578,-0.2607,-0.2616,-0.2657,-0.2664,-0.2672,-0.2675,-0.2673,-0.2673,-0.2686,-0.2684,-0.2677,-0.2676,-0.2676,-0.2676,0,-0.2365,-0.2376,-0.2419,-0.2444,-0.2451,-0.2478,-0.2501,-0.2525,-0.2536,-0.2571,-0.258,-0.2598,-0.2631,-0.2644,-0.2686,-0.2692,-0.274,-0.2739,-0.2732,-0.2733,-0.276,-0.2758,-0.2842,-0.2854,-0.2784,-0.2784,-0.2785,0,-0.24,-0.2426,-0.2453,-0.2471,-0.2486,-0.2515,-0.2534,-0.2543,-0.2563,-0.2593,-0.2614,-0.2647,-0.2674,-0.2729,-0.2746,-0.2778,-0.2779,-0.2806,-0.2784,-0.2782,-0.2782,-0.2781,-0.2784,-0.2811,-0.2812,-0.2812,-0.2813,0,-0.2461,-0.2465,-0.2492,-0.2521,-0.2543,-0.2567,-0.259,-0.2605,-0.2617,-0.264,-0.2674,-0.2695,-0.2737,-0.277,-0.2803,-0.2819,-0.2819,-0.2819,-0.2827,-0.2827,-0.2823,-0.2827,-0.2745,-0.2818,-0.2817,-0.2817,-0.2816,-0.2816,-0.2504,-0.2528,-0.2551,-0.2581,-0.2599,-0.262,-0.2644,-0.2658,-0.2686,-0.272,-0.2723,-0.276,-0.2785,-0.2828,-0.2845,-0.2875,-0.2868,-0.288,-0.2883,-0.2886,-0.2889,-0.2816,-0.2881,-0.2881,-0.2881,-0.288,-0.288,0,-0.2567,-0.2581,-0.2609,-0.2641,-0.2665,-0.266,-0.2685,-0.2706,-0.2738,-0.276,-0.2787,-0.2826,-0.2859,-0.2878,-0.2911,-0.2931,-0.2932,-0.294,-0.294,-0.2944,-0.2892,-0.2883,-0.2939,-0.2939,-0.2939,-0.2939,-0.2939,-0.2939,-0.2603,-0.2643,-0.2649,-0.2698,-0.2713,-0.2748,-0.2763,-0.2783,-0.2801,-0.2845,-0.2871,-0.2883,-0.2905,-0.2939,-0.2969,-0.2974,-0.2987,-0.2996,-0.3001,-0.2953,-0.2947,-0.2941,-0.2932,-0.2998,-0.2998,-0.305,-0.305,-0.305]},{"header":{"parameterUnit":"m.s-1","parameterCategory":1,"la1":30.2991,"la2":30.254,"lo1":-89.0895,"lo2":-89.0444,"dy":0.0017,"dx":0.0017,"nx":28,"ny":28,"refTime":"2026-02-16T03:00:00:Z","depth":0,"parameterNumber":3,"parameterNumberName":"V-component_of_WINDS"},"data":[0,0,0,0,0,0,0,0,0,0,0,0,0,0,0,0,0,0,0,0,0,0,0,0,0,0,0,0,0,0,0,0,0,0,0,0,0,0,0,0,0,0,0,0,0,0,0,0,0,0,0,0,0,0,0,0,0,0,2.1963,2.1963,0,2.1984,2.1984,2.1984,2.1967,2.1966,2.1965,2.1964,2.1983,2.1984,2.1985,0,0,0,0,0,0,0,0,0,0,0,0,0,2.1905,2.1907,2.1963,2.1963,2.1964,2.1984,2.1984,2.1985,2.1967,2.1966,2.1965,2.1964,2.1983,2.1984,2.1986,0,0,0,0,0,0,0,0,0,0,0,0,0,2.1929,2.1907,2.1963,2.1957,2.1957,2.1984,2.1984,2.1985,2.1967,2.1966,2.1965,2.1964,2.1982,2.1984,2.1986,2.2019,0,0,2.1991,2.1992,0,0,0,0,0,0,0,0,2.1927,2.1931,2.1958,2.1958,2.1957,2.1972,2.1971,2.1996,2.1967,2.1963,2.1964,2.1963,2.198,2.1982,2.1988,2.202,2.202,2.1991,2.1992,2.1993,2.1994,0,0,0,0,0,0,0,2.1926,2.193,2.1971,2.1958,2.1958,2.1953,2.1955,2.1975,2.1977,2.1963,2.1962,2.1965,2.198,2.1986,2.1988,2.2021,2.1991,2.1993,2.1994,2.1995,2.208,2.2081,0,0,0,0,0,0,2.1925,2.1929,2.1971,2.1972,2.194,2.1955,2.1957,2.1968,2.1977,2.1977,2.1966,2.1964,2.1984,2.1986,2.1989,2.2028,2.1993,2.1995,2.1996,2.2079,2.2081,2.2082,0,0,0,0,0,0,2.1924,2.1929,2.197,2.195,2.1955,2.1957,2.1969,2.1969,2.1976,2.1979,2.1979,2.1973,2.1983,2.1987,2.2012,2.2029,2.1996,2.1997,2.2078,2.208,2.2081,2.2107,0,0,0,0,0,0,2.1922,2.1929,2.1942,2.195,2.1956,2.1993,2.1971,2.197,2.1979,2.1977,2.1985,2.1986,2.1983,2.2009,2.2013,2.203,2.1999,2.2076,2.2079,2.2081,2.2104,2.2109,2.2113,0,0,0,0,0,2.1921,2.1948,2.1943,2.1948,2.1972,2.1994,2.1997,2.1994,2.1981,2.1994,2.1996,2.1985,2.2026,2.2012,2.2017,2.2034,2.2075,2.2078,2.208,2.2102,2.2108,2.2113,0,0,0,0,0,0,2.194,2.1949,2.1943,2.1974,2.1983,2.1991,2.2007,2.2,2.2012,2.201,2.2004,2.2006,2.2033,2.2036,2.202,2.2067,2.2048,2.2052,2.2064,2.2069,2.2074,2.2072,2.2,0,0,0,0,0,2.1948,2.1965,2.1972,2.1998,2.2003,2.2004,2.2014,2.201,2.2019,2.2023,2.2027,2.2036,2.205,2.206,2.2074,2.2105,2.2106,2.212,2.2124,2.2128,2.2131,2.2148,2.2154,2.2091,2.2091,2.2091,0,0,2.1964,2.1971,2.1982,2.2002,2.2009,2.2027,2.2008,2.2027,2.204,2.2026,2.205,2.2053,2.2062,2.2091,2.2103,2.2094,2.2149,2.2131,2.2134,2.2135,2.2151,2.2157,2.2162,2.2093,2.2092,2.2092,0,0,2.2002,2.201,2.2033,2.2041,2.2052,2.2052,2.2058,2.2067,2.2069,2.2093,2.2083,2.2098,2.2123,2.2131,2.2137,2.218,2.2171,2.2184,2.2207,2.2224,2.2229,2.2233,2.2248,2.2253,2.2188,2.2188,2.2188,0,2.2021,2.2048,2.2045,2.2066,2.2075,2.2064,2.2087,2.2094,2.2109,2.2115,2.2105,2.2137,2.2143,2.2173,2.2183,2.2189,2.2195,2.2183,2.2229,2.2233,2.2237,2.2251,2.2256,2.2189,2.2189,2.2189,2.2189,0,2.207,2.2089,2.2106,2.2122,2.2133,2.2154,2.2154,2.2165,2.2162,2.2163,2.2188,2.2195,2.2209,2.2217,2.2212,2.2246,2.224,2.2229,2.2211,2.2244,2.2257,2.2263,2.2192,2.2191,2.219,2.219,0,0,2.212,2.2135,2.2141,2.2148,2.2161,2.2175,2.2196,2.2211,2.2221,2.2232,2.2249,2.2271,2.2262,2.2269,2.2266,2.2281,2.2314,2.2268,2.2268,2.2276,2.2351,2.2358,2.2365,2.2308,2.2309,2.231,2.235,0,2.2159,2.2196,2.2195,2.2229,2.2247,2.2237,2.2256,2.2265,2.2267,2.2281,2.2283,2.2299,2.2286,2.229,2.2304,2.2307,2.2328,2.2304,2.2323,2.2324,2.2321,2.2371,2.2379,2.2417,2.2355,2.2356,2.2356,0,2.2209,2.2222,2.2259,2.2269,2.2276,2.2293,2.2307,2.2321,2.2331,2.2332,2.2341,2.2336,2.2357,2.2338,2.2366,2.235,2.2358,2.236,2.2361,2.2362,2.2342,2.2373,2.2428,2.2434,2.2365,2.2364,2.2363,0,2.2241,2.2269,2.2294,2.2301,2.2313,2.2325,2.2331,2.234,2.2349,2.2362,2.2368,2.2382,2.239,2.2401,2.2399,2.2386,2.2428,2.2409,2.2428,2.2428,2.2437,2.2436,2.2493,2.2443,2.2443,2.2443,2.2443,0,2.2284,2.2307,2.2309,2.2325,2.235,2.2348,2.2373,2.2377,2.2385,2.2401,2.2394,2.2408,2.2406,2.2421,2.2419,2.2443,2.2446,2.2447,2.2446,2.2447,2.2447,2.2452,2.2449,2.2444,2.2444,2.2444,2.2443,0,2.2324,2.2327,2.2354,2.2364,2.2367,2.2385,2.2393,2.2408,2.241,2.243,2.2435,2.2438,2.2455,2.2455,2.2473,2.2473,2.2501,2.2498,2.2498,2.2497,2.2516,2.2514,2.2577,2.2586,2.2531,2.2531,2.2532,0,2.2351,2.2368,2.2381,2.2392,2.2398,2.2415,2.2426,2.2425,2.2435,2.2449,2.2461,2.2478,2.2491,2.2519,2.2522,2.2536,2.2533,2.2554,2.2535,2.2536,2.2533,2.2531,2.2533,2.2558,2.2558,2.2559,2.2559,0,2.2398,2.2399,2.2415,2.2431,2.2444,2.2456,2.2468,2.2477,2.2477,2.2489,2.2507,2.2518,2.2538,2.2554,2.2568,2.2573,2.2566,2.2566,2.2571,2.2571,2.2571,2.2571,2.2508,2.2564,2.2563,2.2563,2.2563,2.2563,2.2432,2.2447,2.2459,2.2477,2.2486,2.2497,2.2511,2.2516,2.2531,2.2548,2.2546,2.2566,2.2576,2.2594,2.2601,2.2616,2.2608,2.2615,2.2617,2.2619,2.2621,2.2569,2.2618,2.2618,2.2618,2.2618,2.2618,0,2.2479,2.2486,2.2503,2.252,2.2534,2.2527,2.254,2.2552,2.257,2.258,2.2593,2.2614,2.263,2.2635,2.265,2.2661,2.2659,2.2665,2.2664,2.2665,2.2627,2.2621,2.2667,2.2667,2.2667,2.2667,2.2667,2.2667,2.2505,2.253,2.2533,2.2562,2.2569,2.2589,2.2597,2.2607,2.2615,2.2639,2.2653,2.2657,2.2665,2.2681,2.2695,2.2696,2.2702,2.271,2.2709,2.2673,2.2668,2.2663,2.2657,2.2711,2.2711,2.2747,2.2747,2.2747]}]]